Regional Weather Roundup
Issued by NWS New Orleans/Baton Rouge, LA

Home | Current Version | Previous Version | Text Only | Print | Product List | Glossary On
Versions: 1 2 3 4 5 6 7 8 9 10 11 12 13 14 15 16 17 18 19 20 21 22 23 24 25 26 27
000
ASUS44 KLIX 241013
RWRLIX
NEW ORLEANS REGIONAL WEATHER ROUNDUP
NATIONAL WEATHER SERVICE NEW ORLEANS LA
500 AM CDT MON APR 24 2017

NOTE: "FAIR" INDICATES FEW OR NO CLOUDS BELOW 12,000 FEET WITH NO
      SIGNIFICANT WEATHER AND/OR OBSTRUCTIONS TO VISIBILITY.
      SKY/WX - SKY CONDITION AND SIGNIFICANT WEATHER.
      TMP - AIR TEMPERATURE.     DP    - DEWPOINT TEMPERATURE.
      RH  - RELATIVE HUMIDITY.   PRES  - PRESSURE.
      HI  - HEAT INDEX.          WCI   - WIND CHILL INDEX.

*  THESE STATIONS ARE NOT NWS OR FAA STATIONS AND ARE NOT UNDER
   NWS QUALITY CONTROL.

LAZ038-040-048-061>063-065>067-069-241100-
SOUTHEAST LOUISIANA

CITY           SKY/WX    TMP DP  RH WIND       PRES   REMARKS
N.O. INTL ARPT PTCLDY    53  50  89 W7        29.88R
N.O. LAKEFRONT CLEAR     63  51  65 NW15      29.87S
N.O. DOWNTOWN*   N/A     57  50  77 VRB3        N/A
RESERVE*       NOT AVBL
SLIDELL        PTCLDY    51  49  92 CALM      29.86R
BATON ROUGE    CLEAR     51  49  92 CALM      29.90R
BOOTHVILLE     CLEAR     57  54  89 W5        29.86F
BELLE CHASSE   CLEAR    N/A N/A N/A MISG      29.87S
BOGALUSA*      NOT AVBL
GALLIANO*      SUNNY     49  47  92 CALM      29.89R
NEW ROADS*       N/A     48  48  98 CALM      29.91R
GONZALES*        N/A     53  52  97 W5        29.89R
HAMMOND*       CLEAR     50  48  93 CALM      29.88S
HOUMA*         CLEAR     49  49  99 CALM      29.89S FOG
PORT FOURCHON* SUNNY     59  52  77 NW7       29.89R

$$

MSZ070-080>082-241100-
SOUTHERN MISSISSIPPI

CITY           SKY/WX    TMP DP  RH WIND       PRES   REMARKS
MCCOMB         CLEAR     50  47  89 NW5       29.87R
GULFPORT       CLEAR     51  49  92 NW5       29.83F
BILOXI         CLEAR     55  51  87 NW8       29.82F
PASCAGOULA     PTCLDY    50  47  89 CALM      29.82F

$$

COASTAL OBSERVATIONS
LAKE AND NEARSHORE STATIONS

STATION/POSITION TIME  TEMP    WIND        PRES    WAVE
                       AIR SEA DIR/SP/G            HT/PER
                 (UTC) (F)     (DEG/KT/KT) (MB)    (FT/S)
PASCAGOULA       0948   55     300/  4/  5 1009.5
WAVELAND YACHT   0948   53 73  280/  6/  9 1010.2
GRAND ISLE       0948   62 73  320/ 10/ 12 1011.1
SOUTHWEST PASS   0942          350/ 14/ 19   N/A
NEW CANAL        0948   63 72  310/  4/ 11 1011.3
SHELL BEACH      0948   62 73  330/ 13/ 16 1011.0

OFFSHORE STATIONS

STATION/POSITION TIME  TEMP    WIND        PRES    WAVE
                       AIR SEA DIR/SP/G            HT/PER
                 (UTC) (F)     (DEG/KT/KT) (MB)    (FT/S)
64 S DAUPHIN ISL 0950   64 74  330/ 16/ 19 1010.0    4/ 6

$$





USA.gov is the U.S. government's official web portal to all federal, state and local government web resources and services.